Find Starlink 34817

NORAD ID: 65362 Int'l Des: 2025-190 Owner: SPXS Country: US Constellation: starlink operational
LEOCIRCULAR

Live-Position

3D-Globus wird geladen...

Über Starlink 34817

Beschreibung wird geladen...

Nächste Überflüge

Passes for default location (London). Set your location on the main map for personalized predictions.

Höhenverlauf

Loading altitude history...

Zweizeiliger Elementsatz

1 65362U 25190M 26105.08827061 -.00012421 00000-0 -40788-3 0 9997
2 65362 53.1613 359.4185 0001813 74.9838 285.1364 15.30203656 35323
Epoch: 15. Apr. 2026 • Age: 9 hours

Aktueller Status

Höhe 493.7 km
Geschwindigkeit 7.62 km/s
Subsatellitenpunkt -49.93°S, 129.42°W
Startdatum 28. Aug. 2025
Alter 0.6 years
Typ internet

Technische Details

Klassifizierung Payload
Masse 575.00 kg
Trockenmasse 530.00 kg
Gesamtmasse 575.00 kg
Länge 0.30 m
Durchmesser 4.10 m
Spannweite 29.00 m
Form Box + pan
Hersteller SPXS
Bus-Typ Starlink V2MO
Phasenstatus In Orbit
Besitzer/Staat SPXS/US

Most Searched